Regional Weather Roundup
Issued by NWS

Home | Current Version | Previous Version | Graphics & Text | Print | Product List | Glossary On
Versions: 1 2 3 4 5 6 7 8 9 10 11 12 13 14 15 16 17 18 19 20 21 22 23 24 25 26 27 28 29 30 31 32 33 34 35 36 37 38 39 40 41 42 43 44 45 46 47 48 49 50
000
ASUS43 KLOT 080708
RWRIL

ILLINOIS REGIONAL WEATHER ROUNDUP
NATIONAL WEATHER SERVICE CHICAGO/ROMEOVILLE IL
100 AM CST THU DEC 08 2016

NOTE: "FAIR" INDICATES FEW OR NO CLOUDS BELOW 12,000 FEET WITH NO
SIGNIFICANT WEATHER AND/OR OBSTRUCTIONS TO VISIBILITY.

* THESE STATIONS ARE NOT UNDER NWS QUALITY CONTROL. THEY ALSO MAY NOT
  REPORT WEATHER SUCH AS PRECIPITATION OR FOG.

ILZ001-002-007-009-015-016-024-080800-
NORTHWEST ILLINOIS

CITY           SKY/WX    TMP DP  RH WIND       PRES   REMARKS
MOLINE         CLOUDY    21  11  65 W16       30.26R WCI   7
STERLING*      FLURRIES  21  14  74 W20G28    30.21R WCI   6
SAVANNA*       CLOUDY    22  13  68 W14G23    30.21S WCI   9
$$

ILZ003-004-008-010-011-017-018-080800-
NORTH CENTRAL ILLINOIS

CITY           SKY/WX    TMP DP  RH WIND       PRES   REMARKS
ROCKFORD       FLURRIES  23  14  68 W20       30.16F WCI   8
FREEPORT*      CLOUDY    21  12  69 W23       30.18R WCI   4
ROCHELLE*      FLURRIES  22  16  78 W17       30.18S WCI   8
DE KALB*       CLOUDY    22  15  74 W22G30    30.15S WCI   6
$$

ILZ005-006-012>014-019>023-080800-
NORTHEAST ILLINOIS

CITY           SKY/WX    TMP DP  RH WIND       PRES   REMARKS
CHICAGO-OHARE  FLURRIES  24  14  65 W21G35    30.14S WCI   9
CHICAGO-MIDWAY FLURRIES  25  13  60 W17G26    30.16S WCI  12
AURORA         FLURRIES  24  16  71 W20       30.17R WCI  10
LANSING*       CLOUDY    24  17  75 W14G30    30.17S WCI  11
JOLIET*        CLOUDY    25  16  68 W15G22    30.19S WCI  13
WAUKEGAN       CLOUDY    24  14  65 W8G24     30.10S WCI  15
DUPAGE AIRPORT CLOUDY    23  13  65 W21G30    30.15R WCI   8
KANKAKEE*      MIX PCPN  24  16  70 W20       30.21R WCI  10
WHEELING       CLOUDY    24  13  62 W14       30.15S WCI  12
MORRIS*        CLOUDY    24  16  72 W15       30.19S WCI  11
ROMEOVILLE*    CLOUDY    23  18  80 W21G29    30.17S WCI   8
NORTHERLY ISL    N/A     25  15  66 W15         N/A  WCI  13
$$

LMZ740>746-080800-
SOUTHERN LAKE MICHIGAN

STATION/POSITION SKY/WX   TEMP    WIND        PRES    VSBY  WAVE
                          AIR SEA DIR/SP/G                  HT/PER
                          (F)     (DEG/KT/KT) (MB)    (MI)  (FT/S)
HARRISON CRIB              25     280/ 23/ 27   N/A
BURNHAM HARBOR             25     260/  9/ 18   N/A
CALUMET HARBOR                    250/ 10/ 16 1020.5F
BURNS HARBOR               26     270/ 22/ 29 1021.3
MICHIGAN CITY              26     230/ 29/ 31   N/A
$$

ILZ025>027-034>036-040-047-049-050-058-095>099-080800-
WEST-CENTRAL ILLINOIS

CITY           SKY/WX    TMP DP  RH WIND       PRES   REMARKS
QUINCY         CLEAR     21  11  65 W16G23    30.35S WCI   7
GALESBURG*     CLEAR     19  13  77 W20       30.28R WCI   3
MACOMB*        CLEAR     20  13  73 W18G26    30.33S WCI   5
JACKSONVILLE*  CLEAR     22  13  70 W12       30.34S WCI  10
PITTSFIELD*    CLEAR     22  13  66 W8        30.36S WCI  13
$$

ILZ028>032-037-038-041>044-048-051>054-059>061-080800-
CENTRAL ILLINOIS

CITY           SKY/WX    TMP DP  RH WIND       PRES   REMARKS
PONTIAC        CLOUDY    25  17  73 W23       30.23S WCI  10
BLOOMINGTON    CLEAR     21  13  71 W17G28    30.25R WCI   7
DECATUR        CLEAR     23  13  65 W12G21    30.29S WCI  12
PEORIA         CLEAR     21  12  68 W12G23    30.29S WCI   9
LACON*         CLEAR     21  13  71 W10G18    30.26R WCI  10
LINCOLN*       CLEAR     23  14  69 W10G16    30.30R WCI  13
SPRINGFIELD    CLEAR     24  13  62 W15G21    30.32S WCI  11
TAYLORVILLE    CLEAR     24  15  68 W7G22     30.32R WCI  16
$$

ILZ033-039-045-046-055>057-062-063-080800-
EAST-CENTRAL ILLINOIS

CITY           SKY/WX    TMP DP  RH WIND       PRES   REMARKS
CHAMPAIGN      CLEAR     23  14  68 W18       30.26R WCI   9
RANTOUL*       CLOUDY    25  17  72 W18       30.24S WCI  11
MATTOON        MOCLDY    26  17  68 W14       30.27R WCI  14
PARIS*         MOCLDY    26  20  76 W16G23    30.27R WCI  14
$$

ILZ079-100>102-080800-
SOUTHWEST ILLINOIS

CITY           SKY/WX    TMP DP  RH WIND       PRES   REMARKS
ALTON          CLEAR     25  16  68 W14       30.37R WCI  14
BELLEVILLE     PTCLDY    27  17  64 NW16      30.35R WCI  15
CAHOKIA*       CLEAR     28  13  53 NW18      30.38R WCI  15
SPARTA*        PTCLDY    28  17  61 NW12G18   30.36S WCI  18
$$

ILZ064>066-069>071-074>076-080>082-084>086-088>090-092>094-080800-
SOUTH-CENTRAL ILLINOIS

CITY           SKY/WX    TMP DP  RH WIND       PRES   REMARKS
CARBONDALE     MOCLDY    31  21  66 N9        30.34R WCI  23
CAIRO*         CLOUDY    35  24  63 NW7       30.33R WCI  29
EFFINGHAM*     CLOUDY    28  20  72 W10       30.32R WCI  19
MARION           N/A     34  21  60 NW6       30.34R WCI  29
CENTRALIA*     CLOUDY    30  23  73 NW12      30.33R WCI  21
SALEM*         CLOUDY    31  18  60 W12G21    30.33R WCI  21
METROPOLIS*    CLOUDY    35  21  58 NW8       30.32S WCI  28
$$

ILZ067-068-072-073-078-083-087-091-080800-
SOUTHEAST ILLINOIS

CITY           SKY/WX    TMP DP  RH WIND       PRES   REMARKS
LAWRENCEVILLE  CLOUDY    31  18  58 NW16      30.29R WCI  20
FLORA*         CLOUDY    31  19  61 NW13      30.32R WCI  21
FAIRFIELD*     MOCLDY    31  21  66 NW6       30.31R WCI  25
HARRISBURG*    CLOUDY    33  22  63 NW15      30.32R WCI  23
ROBINSON*      CLOUDY    29  19  67 NW13      30.30R WCI  18
CARMI*         CLOUDY    32  23  69 NW15      30.30R WCI  22
$$

ABBREVIATIONS USED IN REMARKS
   TC - TEMPERATURE IN CELSIUS
  WCI - WIND CHILL INDEX
   HX - HEAT INDEX
  VSB - VISIBILITY
$$




USA.gov is the U.S. government's official web portal to all federal, state and local government web resources and services.